Pittsfield, IL

8:29 AM CDT on August 22, 2017 (GMT -0500)
Pittsfield Penstone Municipal

Weather History for KPPQ - February, 2014

Change the Weather History Date:

Wednesday, February 26, 2014

  Actual Average (KUIN) Record (KUIN)
Temperature  
Mean Temperature 14 °F -  
Max Temperature 25 °F 42 °F 73 °F (1996)
Min Temperature 4 °F 25 °F -11 °F (1963)
Degree Days  
Heating Degree Days 50    
Moisture  
Dew Point 0 °F    
Average Humidity 49    
Maximum Humidity 67    
Minimum Humidity 33    
Precipitation  
Precipitation 0.00 in - - ()
Sea Level Pressure  
Sea Level Pressure 30.17 in    
Wind  
Wind Speed 14 mph (West)    
Max Wind Speed 22 mph    
Max Gust Speed 28 mph    
Visibility 10 miles    
Events      
Averages and records for this station are not official NWS values.
T = Trace of Precipitation, MM = Missing Value Source: NWS Daily Summary

Daily Weather History Graph

Daily Weather History Graph

Search for Another Location

Airport or City:

Trip Planner

Search our weather history database for the weather conditions in past years. The results will help you decide how hot, cold, wet, or windy it might be!

Date:

Astronomy

Feb. 26, 2014 Rise Set
Actual Time 6:40 AM CST 5:52 PM CST
Civil Twilight 6:13 AM CST 6:19 PM CST
Nautical Twilight 5:42 AM CST 6:50 PM CST
Astronomical Twilight 5:11 AM CST 7:21 PM CST
Moon 4:26 AM CST (2/26) 3:07 PM CST (2/26)
Length of Visible Light 12h 05m
Length of Day
11h 11m
Waning Crescent, 10% of the Moon is Illuminated
Feb 26
Waning Crescent
Mar 1
New
Mar 8
First Quarter
Mar 16
Full
Mar 23
Last Quarter

Hourly Weather History & Observations

Time (CST) Temp. Windchill Dew Point Humidity Pressure Visibility Wind Dir Wind Speed Gust Speed Precip Events Conditions
12:15 AM 14.5 °F -3.6 °F 2.3 °F 58% 30.36 in 10.0 mi NW 21.9 mph 26.5 mph N/A   Scattered Clouds
12:35 AM 14.5 °F -0.7 °F 3.6 °F 62% 30.36 in 10.0 mi NW 15.0 mph - N/A   Scattered Clouds
12:55 AM 14.0 °F -2.5 °F 3.4 °F 63% 30.37 in 10.0 mi NW 17.3 mph 24.2 mph N/A   Mostly Cloudy
1:15 AM 14.0 °F -3.0 °F 3.2 °F 62% 30.38 in 10.0 mi NW 18.4 mph 27.6 mph N/A   Mostly Cloudy
1:35 AM 13.8 °F -1.1 °F 3.2 °F 63% 30.36 in 10.0 mi NW 13.8 mph - N/A   Scattered Clouds
1:55 AM 13.1 °F -4.2 °F 1.8 °F 61% 30.36 in 10.0 mi NNW 18.4 mph 24.2 mph N/A   Scattered Clouds
2:15 AM 12.7 °F -2.5 °F 2.7 °F 64% 30.35 in 10.0 mi NW 13.8 mph 18.4 mph N/A   Scattered Clouds
2:35 AM 12.0 °F -4.0 °F 0.9 °F 61% 30.36 in 10.0 mi NW 15.0 mph 24.2 mph N/A   Scattered Clouds
2:55 AM 11.3 °F -4.3 °F -0.8 °F 58% 30.35 in 10.0 mi NW 13.8 mph 21.9 mph N/A   Scattered Clouds
3:15 AM 10.8 °F -6.2 °F -0.0 °F 62% 30.35 in 10.0 mi NW 16.1 mph - N/A   Clear
3:35 AM 10.0 °F -8.6 °F -2.2 °F 58% 30.35 in 10.0 mi NNW 19.6 mph 24.2 mph N/A   Scattered Clouds
3:55 AM 9.0 °F -8.5 °F -2.7 °F 59% 30.35 in 10.0 mi NW 16.1 mph 23.0 mph N/A   Scattered Clouds
4:15 AM 8.2 °F -8.8 °F -3.6 °F 58% 30.36 in 10.0 mi NW 15.0 mph 24.2 mph N/A   Scattered Clouds
4:35 AM 7.2 °F -9.6 °F -4.5 °F 59% 30.35 in 10.0 mi WNW 13.8 mph - N/A   Scattered Clouds
4:55 AM 6.3 °F -8.4 °F -4.5 °F 61% 30.35 in 10.0 mi NW 10.4 mph - N/A   Scattered Clouds
5:15 AM 5.9 °F -9.7 °F -3.1 °F 67% 30.35 in 10.0 mi NW 11.5 mph - N/A   Scattered Clouds
5:35 AM 5.5 °F -10.9 °F -3.5 °F 66% 30.35 in 10.0 mi NW 12.7 mph 18.4 mph N/A   Scattered Clouds
5:55 AM 5.0 °F -10.8 °F -5.1 °F 63% 30.35 in 10.0 mi NW 11.5 mph 18.4 mph N/A   Scattered Clouds
6:15 AM 4.8 °F -11.1 °F -5.1 °F 64% 30.34 in 10.0 mi NW 11.5 mph - N/A   Scattered Clouds
6:35 AM 4.6 °F -10.4 °F -5.8 °F 62% 30.34 in 10.0 mi NW 10.4 mph - N/A   Scattered Clouds
6:55 AM 4.6 °F -8.5 °F -6.0 °F 62% 30.33 in 10.0 mi NW 8.1 mph - N/A   Clear
7:15 AM 4.8 °F -8.3 °F -5.3 °F 63% 30.33 in 10.0 mi NW 8.1 mph - N/A   Scattered Clouds
7:36 AM 5.2 °F -6.7 °F -5.1 °F 63% 30.33 in 10.0 mi NW 6.9 mph - N/A   Scattered Clouds
7:55 AM 5.7 °F -7.2 °F -6.7 °F 57% 30.34 in 10.0 mi WNW 8.1 mph - N/A   Scattered Clouds
8:15 AM 5.9 °F -7.0 °F -8.0 °F 53% 30.34 in 10.0 mi WNW 8.1 mph - N/A   Scattered Clouds
8:35 AM 6.8 °F -7.8 °F -8.7 °F 49% 30.34 in 10.0 mi NW 10.4 mph - N/A   Scattered Clouds
8:55 AM 7.5 °F -2.6 °F -8.9 °F 47% 30.33 in 10.0 mi West 5.8 mph - N/A   Scattered Clouds
9:15 AM 8.6 °F -1.3 °F -9.9 °F 43% 30.33 in 10.0 mi West 5.8 mph - N/A   Scattered Clouds
9:35 AM 9.5 °F -2.6 °F -11.0 °F 39% 30.32 in 10.0 mi West 8.1 mph - N/A   Clear
9:55 AM 10.0 °F 0.4 °F -9.9 °F 40% 30.31 in 10.0 mi WSW 5.8 mph - N/A   Clear
10:15 AM 11.1 °F -0.6 °F -8.3 °F 41% 30.30 in 10.0 mi West 8.1 mph - N/A   Clear
10:35 AM 12.2 °F 2.9 °F -8.0 °F 40% 30.29 in 10.0 mi West 5.8 mph - N/A   Clear
10:55 AM 13.3 °F 1.1 °F -5.6 °F 43% 30.28 in 10.0 mi SW 9.2 mph - N/A   Clear
11:15 AM 14.0 °F 2.9 °F -5.4 °F 42% 30.27 in 10.0 mi WSW 8.1 mph - N/A   Clear
11:35 AM 15.3 °F 2.8 °F -4.2 °F 42% 30.26 in 10.0 mi WSW 10.4 mph - N/A   Clear
11:55 AM 15.8 °F 3.4 °F -5.4 °F 39% 30.25 in 10.0 mi West 10.4 mph 17.3 mph N/A   Clear
12:16 PM 16.9 °F 3.4 °F -2.7 °F 42% 30.23 in 10.0 mi WSW 12.7 mph 18.4 mph N/A   Clear
12:35 PM 17.8 °F 5.9 °F -2.7 °F 40% 30.21 in 10.0 mi WSW 10.4 mph 18.4 mph N/A   Clear
12:55 PM 18.5 °F 5.5 °F -2.0 °F 41% 30.19 in 10.0 mi West 12.7 mph 20.7 mph N/A   Clear
1:15 PM 19.0 °F 5.0 °F -4.0 °F 36% 30.17 in 10.0 mi West 15.0 mph 19.6 mph N/A   Clear
1:35 PM 20.3 °F 9.0 °F -1.1 °F 39% 30.15 in 10.0 mi WSW 10.4 mph - N/A   Scattered Clouds
1:55 PM 21.2 °F 10.1 °F -1.5 °F 37% 30.13 in 10.0 mi West 10.4 mph 16.1 mph N/A   Clear
2:15 PM 22.1 °F 9.5 °F -3.1 °F 33% 30.11 in 10.0 mi WSW 13.8 mph 21.9 mph N/A   Clear
2:35 PM 22.6 °F 9.2 °F -2.4 °F 34% 30.10 in 10.0 mi WSW 16.1 mph - N/A   Clear
2:55 PM 23.7 °F 11.5 °F -1.5 °F 33% 30.09 in 10.0 mi West 13.8 mph - N/A   Clear
3:15 PM 23.5 °F 9.9 °F -0.9 °F 35% 30.07 in 10.0 mi WSW 17.3 mph - N/A   Clear
3:35 PM 24.6 °F 11.7 °F 0.9 °F 36% 30.05 in 10.0 mi WSW 16.1 mph 20.7 mph N/A   Clear
3:55 PM 24.8 °F 11.1 °F 0.7 °F 35% 30.04 in 10.0 mi SW 18.4 mph 24.2 mph N/A   Clear
4:15 PM 25.3 °F 14.1 °F 0.7 °F 35% 30.03 in 10.0 mi WSW 12.7 mph 19.6 mph N/A   Clear
4:35 PM 25.2 °F 11.6 °F 2.1 °F 37% 30.01 in 10.0 mi SW 18.4 mph 21.9 mph N/A   Clear
4:55 PM 24.8 °F 12.9 °F 0.1 °F 34% 30.00 in 10.0 mi WSW 13.8 mph 24.2 mph N/A   Clear
5:15 PM 24.8 °F 12.4 °F 1.0 °F 36% 29.98 in 10.0 mi SW 15.0 mph 20.7 mph N/A   Clear
5:35 PM 24.6 °F 12.7 °F 0.3 °F 35% 29.98 in 10.0 mi WSW 13.8 mph 19.6 mph N/A   Clear
5:55 PM 24.3 °F 12.2 °F 1.0 °F 37% 29.97 in 10.0 mi WSW 13.8 mph 17.3 mph N/A   Clear
6:15 PM 23.9 °F 12.9 °F 1.0 °F 37% 29.96 in 10.0 mi WSW 11.5 mph - N/A   Clear
6:35 PM 23.9 °F 12.9 °F 2.1 °F 39% 29.96 in 10.0 mi WSW 11.5 mph - N/A   Clear
6:55 PM 23.9 °F 12.3 °F 2.3 °F 39% 29.96 in 10.0 mi WSW 12.7 mph 17.3 mph N/A   Clear
7:15 PM 23.7 °F 12.6 °F 3.0 °F 41% 29.95 in 10.0 mi WSW 11.5 mph - N/A   Clear
7:35 PM 23.5 °F 11.8 °F 3.7 °F 43% 29.94 in 10.0 mi SW 12.7 mph - N/A   Scattered Clouds
7:55 PM 23.7 °F 11.5 °F 4.8 °F 44% 29.94 in 10.0 mi WSW 13.8 mph 19.6 mph N/A   Clear
8:15 PM 23.7 °F 11.5 °F 6.1 °F 47% 29.93 in 10.0 mi WSW 13.8 mph 19.6 mph N/A   Clear
8:35 PM 23.5 °F 11.3 °F 7.0 °F 49% 29.93 in 10.0 mi WSW 13.8 mph 20.7 mph N/A   Clear
8:55 PM 23.7 °F 11.0 °F 7.5 °F 50% 29.92 in 10.0 mi SW 15.0 mph 21.9 mph N/A   Clear
9:15 PM 23.9 °F 11.7 °F 7.3 °F 49% 29.92 in 10.0 mi SW 13.8 mph - N/A   Clear
9:35 PM 23.9 °F 11.2 °F 7.7 °F 50% 29.92 in 10.0 mi WSW 15.0 mph - N/A   Clear
9:55 PM 23.9 °F 11.2 °F 8.4 °F 52% 29.91 in 10.0 mi WSW 15.0 mph 19.6 mph N/A   Clear
10:15 PM 23.7 °F 12.1 °F 8.6 °F 53% 29.91 in 10.0 mi SW 12.7 mph 21.9 mph N/A   Clear
10:35 PM 23.7 °F 11.0 °F 9.3 °F 54% 29.90 in 10.0 mi WSW 15.0 mph 20.7 mph N/A   Clear
10:55 PM 24.3 °F 11.7 °F 9.7 °F 54% 29.89 in 10.0 mi WSW 15.0 mph 20.7 mph N/A   Clear
11:15 PM 24.4 °F 13.5 °F 10.4 °F 55% 29.89 in 10.0 mi WSW 11.5 mph 19.6 mph N/A   Clear
11:35 PM 24.8 °F 12.9 °F 10.8 °F 55% 29.88 in 10.0 mi WSW 13.8 mph 18.4 mph N/A   Clear
11:55 PM 24.8 °F 13.4 °F 11.3 °F 57% 29.88 in 10.0 mi WSW 12.7 mph 18.4 mph N/A   Clear